[[{"header":{"parameterUnit":"m.s-1","parameterCategory":1,"la1":30.2991,"la2":30.254,"lo1":-89.0895,"lo2":-89.0444,"dy":0.0017,"dx":0.0017,"nx":28,"ny":28,"refTime":"2024-12-15T03:00:00:Z","depth":0,"parameterNumber":2,"parameterNumberName":"U-component_of_WINDS"},"data":[0,0,0,0,0,0,0,0,0,0,0,0,0,0,0,0,0,0,0,0,0,0,0,0,0,0,0,0,0,0,0,0,0,0,0,0,0,0,0,0,0,0,0,0,0,0,0,0,0,0,0,0,0,0,0,0,0,0,-3.421,-3.4211,0,-3.426,-3.4261,-3.4261,-3.4216,-3.4215,-3.4213,-3.4211,-3.4264,-3.4267,-3.427,0,0,0,0,0,0,0,0,0,0,0,0,0,-3.4078,-3.4081,-3.421,-3.4211,-3.4211,-3.426,-3.4261,-3.4261,-3.4217,-3.4215,-3.4212,-3.421,-3.4263,-3.4267,-3.427,0,0,0,0,0,0,0,0,0,0,0,0,0,-3.4133,-3.4082,-3.421,-3.4195,-3.4194,-3.426,-3.4261,-3.4262,-3.4217,-3.4214,-3.4212,-3.4209,-3.4262,-3.4266,-3.4271,-3.4355,0,0,-3.4285,-3.4287,0,0,0,0,0,0,0,0,-3.413,-3.4137,-3.4196,-3.4196,-3.4195,-3.4229,-3.4233,-3.4293,-3.4218,-3.4208,-3.4211,-3.4208,-3.4255,-3.426,-3.4275,-3.4357,-3.4359,-3.4286,-3.4288,-3.429,-3.4292,0,0,0,0,0,0,0,-3.4126,-3.4135,-3.423,-3.4197,-3.4197,-3.4186,-3.4191,-3.4245,-3.4246,-3.4209,-3.4206,-3.4212,-3.4254,-3.4271,-3.4276,-3.436,-3.4285,-3.429,-3.4292,-3.4294,-3.4515,-3.4518,0,0,0,0,0,0,-3.4123,-3.4132,-3.4228,-3.4231,-3.4155,-3.4191,-3.4196,-3.4221,-3.4246,-3.4247,-3.4215,-3.421,-3.4264,-3.4271,-3.4278,-3.4379,-3.429,-3.4295,-3.4297,-3.4512,-3.4516,-3.4519,0,0,0,0,0,0,-3.4121,-3.4132,-3.4226,-3.4181,-3.4192,-3.4196,-3.4224,-3.4223,-3.424,-3.425,-3.425,-3.4232,-3.4262,-3.4271,-3.4336,-3.438,-3.4297,-3.4301,-3.4509,-3.4513,-3.4518,-3.4581,0,0,0,0,0,0,-3.4117,-3.4132,-3.4163,-3.4182,-3.4195,-3.4283,-3.4227,-3.4226,-3.4248,-3.4243,-3.4266,-3.4267,-3.4261,-3.4329,-3.4341,-3.4385,-3.4305,-3.4505,-3.4511,-3.4516,-3.4575,-3.4587,-3.4597,0,0,0,0,0,-3.4113,-3.4178,-3.4165,-3.4176,-3.4234,-3.4286,-3.4293,-3.4284,-3.4252,-3.4284,-3.429,-3.4266,-3.4373,-3.4336,-3.4349,-3.4395,-3.4502,-3.4509,-3.4516,-3.4569,-3.4584,-3.4597,0,0,0,0,0,0,-3.4164,-3.4181,-3.4165,-3.4239,-3.4262,-3.4278,-3.4318,-3.43,-3.4332,-3.4325,-3.4313,-3.4319,-3.4388,-3.4398,-3.4356,-3.4478,-3.4433,-3.4442,-3.4469,-3.4483,-3.4494,-3.4491,-3.4309,0,0,0,0,0,-3.4184,-3.4225,-3.4237,-3.4301,-3.4313,-3.4314,-3.4336,-3.4327,-3.435,-3.4359,-3.437,-3.4394,-3.4432,-3.4458,-3.4495,-3.4576,-3.4581,-3.4614,-3.4625,-3.4634,-3.4643,-3.4688,-3.4703,-3.4542,-3.4542,-3.4542,0,0,-3.4226,-3.424,-3.4266,-3.4312,-3.4328,-3.4371,-3.4322,-3.4369,-3.4401,-3.4366,-3.4428,-3.4438,-3.4463,-3.4537,-3.457,-3.4547,-3.4689,-3.4643,-3.465,-3.4654,-3.4697,-3.4712,-3.4726,-3.4547,-3.4546,-3.4545,0,0,-3.4324,-3.4338,-3.4394,-3.4411,-3.4436,-3.4437,-3.445,-3.447,-3.4475,-3.4537,-3.4512,-3.4551,-3.4618,-3.4637,-3.4656,-3.4764,-3.4743,-3.4776,-3.4835,-3.4879,-3.4892,-3.4903,-3.4943,-3.4957,-3.4785,-3.4785,-3.4785,0,-3.4373,-3.4436,-3.4425,-3.4474,-3.4496,-3.4467,-3.4524,-3.4541,-3.4577,-3.4593,-3.4567,-3.4652,-3.4667,-3.4746,-3.4772,-3.4788,-3.4804,-3.4773,-3.4891,-3.4902,-3.4913,-3.495,-3.4965,-3.4789,-3.4788,-3.4788,-3.4787,0,-3.4496,-3.454,-3.4582,-3.4618,-3.4644,-3.4697,-3.4695,-3.4723,-3.4712,-3.4716,-3.478,-3.4798,-3.4838,-3.4856,-3.4846,-3.4934,-3.4919,-3.4893,-3.4846,-3.4932,-3.4967,-3.4982,-3.4794,-3.4793,-3.4792,-3.4791,0,0,-3.4627,-3.4657,-3.4672,-3.4689,-3.4715,-3.475,-3.4802,-3.4841,-3.4866,-3.4892,-3.4937,-3.4995,-3.4971,-3.4992,-3.4984,-3.5023,-3.5109,-3.4992,-3.4992,-3.5014,-3.5209,-3.523,-3.5247,-3.5096,-3.5099,-3.5101,-3.5208,0,-3.4727,-3.4817,-3.481,-3.4896,-3.4937,-3.4911,-3.4957,-3.4979,-3.4984,-3.5021,-3.5026,-3.5068,-3.5033,-3.5046,-3.5083,-3.5091,-3.5149,-3.5083,-3.5139,-3.5141,-3.5134,-3.5265,-3.5286,-3.5386,-3.5221,-3.5223,-3.5225,0,-3.4855,-3.4886,-3.4977,-3.4998,-3.5015,-3.5056,-3.5092,-3.5128,-3.5152,-3.5154,-3.5178,-3.5165,-3.5219,-3.5171,-3.5247,-3.5203,-3.5225,-3.5233,-3.5236,-3.5241,-3.5188,-3.5275,-3.5417,-3.5433,-3.5247,-3.5245,-3.5243,0,-3.4943,-3.5008,-3.507,-3.5085,-3.5111,-3.5141,-3.5154,-3.5176,-3.5201,-3.5232,-3.5248,-3.5286,-3.5307,-3.5337,-3.5335,-3.53,-3.5412,-3.5364,-3.5416,-3.5416,-3.5441,-3.5439,-3.559,-3.5454,-3.5454,-3.5453,-3.5453,0,-3.5056,-3.5113,-3.511,-3.5149,-3.5212,-3.5204,-3.5267,-3.5276,-3.5296,-3.5337,-3.5317,-3.5356,-3.535,-3.5389,-3.5388,-3.5451,-3.5461,-3.5464,-3.5463,-3.5466,-3.5466,-3.5481,-3.5474,-3.5457,-3.5457,-3.5456,-3.5455,0,-3.5165,-3.5166,-3.5233,-3.5252,-3.5259,-3.5305,-3.5322,-3.536,-3.5363,-3.5416,-3.5427,-3.5434,-3.5479,-3.548,-3.5532,-3.5531,-3.5609,-3.56,-3.5601,-3.5599,-3.5651,-3.5647,-3.5818,-3.584,-3.5689,-3.569,-3.5691,0,-3.5237,-3.528,-3.5305,-3.5331,-3.5345,-3.5387,-3.5412,-3.5406,-3.5433,-3.5466,-3.5499,-3.5543,-3.5578,-3.5652,-3.5662,-3.5703,-3.5695,-3.5752,-3.5701,-3.5703,-3.5697,-3.5695,-3.57,-3.5762,-3.5764,-3.5765,-3.5766,0,-3.5365,-3.5364,-3.54,-3.5438,-3.5469,-3.5498,-3.5525,-3.5548,-3.5545,-3.5577,-3.5623,-3.565,-3.5704,-3.5748,-3.5787,-3.5801,-3.5784,-3.5782,-3.5797,-3.5801,-3.58,-3.5802,-3.5629,-3.5778,-3.5777,-3.5776,-3.5776,-3.5775,-3.5458,-3.5496,-3.552,-3.5562,-3.5582,-3.5608,-3.5645,-3.5653,-3.5692,-3.5735,-3.5729,-3.5781,-3.5807,-3.5858,-3.5876,-3.5917,-3.5897,-3.5918,-3.5923,-3.5928,-3.5935,-3.5793,-3.5924,-3.5924,-3.5924,-3.5923,-3.5923,0,-3.5586,-3.5601,-3.564,-3.5679,-3.5712,-3.5693,-3.5722,-3.5752,-3.5798,-3.5823,-3.5858,-3.5912,-3.5956,-3.597,-3.6012,-3.6043,-3.6036,-3.6054,-3.6052,-3.6056,-3.5949,-3.5933,-3.6059,-3.6059,-3.6059,-3.6059,-3.6059,-3.6059,-3.5657,-3.572,-3.5722,-3.5796,-3.581,-3.586,-3.5879,-3.5904,-3.5924,-3.5986,-3.6021,-3.603,-3.6051,-3.6095,-3.6135,-3.6138,-3.6155,-3.6177,-3.6177,-3.6077,-3.6063,-3.605,-3.6035,-3.618,-3.618,-3.628,-3.6281,-3.6282]},{"header":{"parameterUnit":"m.s-1","parameterCategory":1,"la1":30.2991,"la2":30.254,"lo1":-89.0895,"lo2":-89.0444,"dy":0.0017,"dx":0.0017,"nx":28,"ny":28,"refTime":"2024-12-15T03:00:00:Z","depth":0,"parameterNumber":3,"parameterNumberName":"V-component_of_WINDS"},"data":[0,0,0,0,0,0,0,0,0,0,0,0,0,0,0,0,0,0,0,0,0,0,0,0,0,0,0,0,0,0,0,0,0,0,0,0,0,0,0,0,0,0,0,0,0,0,0,0,0,0,0,0,0,0,0,0,0,0,0.3743,0.3743,0,0.3737,0.3737,0.3737,0.3736,0.3736,0.3736,0.3736,0.373,0.373,0.373,0,0,0,0,0,0,0,0,0,0,0,0,0,0.3754,0.3753,0.3743,0.3743,0.3743,0.3737,0.3737,0.3737,0.3736,0.3736,0.3736,0.3736,0.3731,0.373,0.373,0,0,0,0,0,0,0,0,0,0,0,0,0,0.3749,0.3753,0.3743,0.3741,0.3741,0.3737,0.3737,0.3737,0.3736,0.3736,0.3736,0.3736,0.3731,0.373,0.373,0.3728,0,0,0.3729,0.3729,0,0,0,0,0,0,0,0,0.3749,0.3748,0.3742,0.3741,0.3741,0.3737,0.3739,0.3734,0.3736,0.3738,0.3736,0.3736,0.3733,0.3732,0.3731,0.3728,0.3727,0.3729,0.3729,0.3729,0.3729,0,0,0,0,0,0,0,0.3749,0.3749,0.3741,0.3741,0.3741,0.3741,0.3741,0.3738,0.3735,0.3738,0.3737,0.3737,0.3733,0.3731,0.3731,0.3727,0.3729,0.3729,0.3729,0.3729,0.3724,0.3724,0,0,0,0,0,0,0.375,0.3749,0.3741,0.3741,0.3745,0.3741,0.374,0.3738,0.3735,0.3735,0.3737,0.3737,0.3732,0.3731,0.3731,0.3729,0.3729,0.3729,0.3729,0.3724,0.3724,0.3724,0,0,0,0,0,0,0.375,0.3749,0.3741,0.3745,0.3744,0.3741,0.3739,0.3738,0.3737,0.3735,0.3734,0.3736,0.3732,0.3731,0.3729,0.3729,0.3729,0.3729,0.3724,0.3724,0.3724,0.3726,0,0,0,0,0,0,0.375,0.3749,0.3748,0.3745,0.3743,0.3739,0.3739,0.3738,0.3737,0.3737,0.3734,0.3733,0.3732,0.373,0.3729,0.3729,0.3728,0.3724,0.3724,0.3724,0.3726,0.3726,0.3726,0,0,0,0,0,0.3751,0.3748,0.3748,0.3747,0.3741,0.3739,0.3738,0.3737,0.3737,0.3736,0.3734,0.3733,0.3729,0.3729,0.3729,0.3728,0.3724,0.3724,0.3724,0.3726,0.3726,0.3726,0,0,0,0,0,0,0.375,0.3747,0.3747,0.3743,0.3741,0.3738,0.3737,0.3736,0.3735,0.3735,0.3733,0.3732,0.3731,0.3729,0.3729,0.3727,0.3727,0.3727,0.3728,0.3728,0.3728,0.3729,0.3728,0,0,0,0,0,0.375,0.3748,0.3745,0.3742,0.3741,0.3739,0.3738,0.3737,0.3735,0.3735,0.3733,0.3731,0.373,0.3729,0.3727,0.3726,0.3726,0.3725,0.3726,0.3726,0.3726,0.3727,0.3727,0.3724,0.3724,0.3724,0,0,0.3749,0.3747,0.3745,0.3742,0.374,0.3739,0.3739,0.3736,0.3736,0.3734,0.3732,0.3731,0.373,0.3728,0.3728,0.3727,0.3727,0.3726,0.3726,0.3726,0.3727,0.3727,0.3727,0.3724,0.3724,0.3724,0,0,0.3746,0.3744,0.3742,0.3741,0.3739,0.3738,0.3738,0.3736,0.3735,0.3733,0.3733,0.3732,0.3729,0.3729,0.3728,0.3728,0.3727,0.3727,0.3728,0.3729,0.3729,0.373,0.3731,0.3731,0.3727,0.3727,0.3727,0,0.3745,0.3742,0.3741,0.3739,0.3739,0.3738,0.3737,0.3736,0.3733,0.3733,0.3733,0.3731,0.373,0.3729,0.3729,0.3728,0.3729,0.3728,0.3729,0.373,0.373,0.3731,0.3731,0.3728,0.3728,0.3728,0.3727,0,0.3741,0.374,0.3738,0.3737,0.3736,0.3735,0.3734,0.3734,0.3734,0.3733,0.3733,0.3731,0.373,0.373,0.3729,0.373,0.373,0.373,0.3729,0.373,0.3731,0.3732,0.3728,0.3728,0.3728,0.3728,0,0,0.3737,0.3736,0.3736,0.3736,0.3735,0.3734,0.3734,0.3733,0.3734,0.3733,0.3733,0.3732,0.3732,0.3731,0.3731,0.3731,0.3733,0.3731,0.3731,0.3732,0.3736,0.3737,0.3737,0.3733,0.3733,0.3733,0.3736,0,0.3735,0.3733,0.3733,0.3733,0.3732,0.3733,0.3732,0.3732,0.3733,0.3733,0.3733,0.3733,0.3732,0.3732,0.3733,0.3733,0.3734,0.3733,0.3734,0.3734,0.3735,0.3737,0.3738,0.3741,0.3737,0.3737,0.3737,0,0.3731,0.3731,0.3731,0.3732,0.3732,0.3731,0.3732,0.3732,0.3733,0.3733,0.3734,0.3734,0.3734,0.3734,0.3736,0.3735,0.3735,0.3736,0.3736,0.3736,0.3736,0.3739,0.3741,0.3742,0.3737,0.3737,0.3737,0,0.373,0.373,0.373,0.373,0.3731,0.3731,0.3731,0.3732,0.3733,0.3734,0.3734,0.3735,0.3735,0.3737,0.3737,0.3737,0.374,0.3739,0.3741,0.3741,0.3741,0.3741,0.3745,0.3741,0.3741,0.3741,0.3741,0,0.3728,0.3728,0.3729,0.3729,0.373,0.3731,0.3731,0.3732,0.3733,0.3734,0.3734,0.3735,0.3736,0.3738,0.3738,0.3741,0.3741,0.3741,0.3742,0.3742,0.3742,0.3742,0.3743,0.3741,0.3741,0.3741,0.3741,0,0.3726,0.3727,0.3727,0.3729,0.3729,0.373,0.3731,0.3732,0.3733,0.3735,0.3735,0.3736,0.3738,0.3739,0.3741,0.3742,0.3745,0.3745,0.3745,0.3745,0.3748,0.3748,0.3752,0.3753,0.3748,0.3748,0.3748,0,0.3724,0.3725,0.3727,0.3728,0.3728,0.373,0.3731,0.3732,0.3733,0.3735,0.3736,0.3738,0.374,0.3743,0.3745,0.3747,0.3748,0.3749,0.3748,0.3749,0.3749,0.3749,0.375,0.3749,0.3749,0.3749,0.3749,0,0.3723,0.3724,0.3725,0.3727,0.3728,0.373,0.3732,0.3733,0.3734,0.3736,0.3738,0.374,0.3743,0.3746,0.3748,0.375,0.375,0.375,0.3751,0.3751,0.3752,0.3753,0.3746,0.375,0.375,0.375,0.375,0.375,0.3722,0.3723,0.3725,0.3727,0.3729,0.3731,0.3732,0.3734,0.3736,0.3739,0.374,0.3743,0.3746,0.375,0.3751,0.3754,0.3754,0.3754,0.3755,0.3755,0.3756,0.3751,0.3754,0.3754,0.3754,0.3754,0.3754,0,0.3721,0.3723,0.3725,0.3728,0.373,0.3731,0.3733,0.3735,0.3738,0.374,0.3743,0.3747,0.375,0.3752,0.3756,0.3758,0.3758,0.3759,0.3759,0.376,0.3755,0.3755,0.3758,0.3758,0.3758,0.3758,0.3758,0.3758,0.3721,0.3723,0.3725,0.3729,0.3731,0.3734,0.3736,0.3738,0.374,0.3745,0.3748,0.3749,0.3753,0.3757,0.376,0.3761,0.3763,0.3763,0.3764,0.376,0.376,0.3759,0.3759,0.3763,0.3763,0.3768,0.3768,0.3768]}]]